FW2987 Weather Reports


Display with metric or nautical units.
time (UTC)temp
F
wind
direction
speed
MPH
gust
MPH
rain 1hr
in
rain 24hr
in
rain mn
in
humidity
%
barometer
mb
20260506003151 52 278 6.0 15.0 0.01 0.13 0.02 100 1011.3
20260506002649 52 307 6.0 15.0 0.01 0.13 0.02 100 1011.4
20260506001646 52 318 5.0 14.0 0.01 0.13 0.02 100 1011.4
20260506001143 52 306 6.0 12.0 0.01 0.13 0.02 100 1011.4
20260506000641 52 327 7.0 12.0 0.01 0.13 0.02 100 1011.3
20260506000139 52 313 6.0 13.0 0.01 0.13 0.02 100 1011.4
20260505235638 52 306 6.0 13.0 0.01 0.13 0.02 100 1011.5
20260505235135 52 271 4.0 13.0 0.01 0.13 0.02 100 1011.5
20260505234633 52 259 7.0 13.0 0.00 0.12 0.01 100 1011.4
20260505234131 52 270 7.0 16.0 0.00 0.12 0.01 100 1011.5
20260505233633 52 282 8.0 12.0 0.00 0.12 0.01 100 1011.5
20260505233128 52 294 5.0 14.0 0.00 0.12 0.01 100 1011.5
20260505232628 52 315 7.0 14.0 0.00 0.12 0.01 100 1011.5
20260505232123 52 302 8.0 17.0 0.00 0.12 0.01 100 1011.5
20260505231622 52 294 8.0 17.0 0.01 0.12 0.01 100 1011.7
20260505231120 52 293 6.0 14.0 0.01 0.12 0.01 100 1011.7
20260505230618 52 246 5.0 14.0 0.01 0.12 0.01 100 1011.7
20260505225601 52 311 7.0 14.0 0.01 0.12 0.01 100 1011.7
20260505225101 52 275 9.0 14.0 0.01 0.12 0.01 100 1011.7
20260505224558 52 309 5.0 13.0 0.01 0.12 0.01 100 1011.7
20260505224059 52 313 5.0 11.0 0.01 0.12 0.01 100 1011.8
20260505223553 52 309 4.0 14.0 0.02 0.12 0.01 100 1011.8
20260505223052 52 238 6.0 14.0 0.02 0.12 0.01 100 1011.8
20260505222601 52 261 6.0 15.0 0.02 0.12 0.01 100 1011.7
20260505221555 52 292 5.0 10.0 0.01 0.11 0.00 100 1011.8
20260505221048 52 265 5.0 14.0 0.01 0.11 0.00 100 1011.8
20260505220546 52 327 8.0 14.0 0.01 0.11 0.00 100 1011.8
20260505220048 52 316 6.0 14.0 0.02 0.11 0.11 100 1011.8
20260505215541 53 299 6.0 13.0 0.02 0.11 0.11 100 1011.8
20260505215049 53 308 6.0 13.0 0.02 0.11 0.11 100 1011.8
20260505214604 53 290 6.0 13.0 0.02 0.11 0.11 100 1011.8
20260505214050 52 316 7.0 14.0 0.02 0.11 0.11 100 1011.9
20260505213549 52 304 6.0 14.0 0.02 0.10 0.10 100 1011.9
20260505213058 52 302 6.0 13.0 0.02 0.10 0.10 100 1011.9
20260505212547 52 297 5.0 12.0 0.02 0.10 0.10 100 1011.9
20260505212048 52 321 7.0 12.0 0.02 0.10 0.10 100 1011.9
20260505211550 52 290 5.0 12.0 0.02 0.10 0.10 100 1011.9
20260505211051 53 311 6.0 15.0 0.02 0.10 0.10 100 1012.0
20260505210553 52 322 9.0 20.0 0.02 0.10 0.10 100 1011.9
20260505210059 52 306 8.0 20.0 0.01 0.09 0.09 100 1011.8
20260505205547 52 296 7.0 15.0 0.02 0.09 0.09 100 1011.8
20260505205053 52 317 8.0 15.0 0.02 0.09 0.09 100 1011.9
20260505204556 52 294 8.0 14.0 0.02 0.09 0.09 100 1011.8
20260505204050 53 296 8.0 14.0 0.02 0.09 0.09 100 1011.8
20260505203555 53 286 6.0 14.0 0.01 0.08 0.08 100 1011.8
20260505203058 53 311 6.0 14.0 0.01 0.08 0.08 100 1011.7
20260505202554 52 304 7.0 14.0 0.02 0.08 0.08 100 1011.7
20260505202046 52 322 8.0 14.0 0.02 0.08 0.08 100 1011.7
20260505201545 52 303 6.0 13.0 0.02 0.08 0.08 100 1011.7
20260505201044 52 294 5.0 16.0 0.02 0.08 0.08 100 1011.7
20260505200545 52 317 8.0 16.0 0.02 0.08 0.08 100 1011.5
20260505200059 52 273 8.0 15.0 0.02 0.08 0.08 100 1011.4
20260505195542 52 292 8.0 15.0 0.01 0.07 0.07 100 1011.4
20260505195041 52 273 6.0 14.0 0.01 0.07 0.07 100 1011.4
20260505194545 52 300 6.0 13.0 0.01 0.07 0.07 100 1011.4
20260505194036 52 320 6.0 13.0 0.01 0.07 0.07 100 1011.3
20260505193534 52 298 6.0 14.0 0.01 0.07 0.07 100 1011.2
20260505193035 52 303 7.0 14.0 0.02 0.07 0.07 100 1011.2
20260505192535 52 313 5.0 14.0 0.01 0.06 0.06 100 1011.2
20260505192028 52 306 9.0 14.0 0.01 0.06 0.06 100 1011.2
20260505191026 52 324 9.0 17.0 0.01 0.06 0.06 100 1011.2
20260505190523 52 315 6.0 13.0 0.01 0.06 0.06 100 1011.1
20260505190023 52 286 5.0 12.0 0.01 0.06 0.06 100 1011.1
20260505185519 52 303 7.0 13.0 0.02 0.06 0.06 100 1011.1
20260505185017 52 316 5.0 16.0 0.02 0.06 0.06 100 1011.2
20260505184508 52 307 8.0 15.0 0.02 0.06 0.06 100 1011.1
20260505184006 52 313 8.0 14.0 0.02 0.06 0.06 100 1011.0
20260505183504 52 307 5.0 12.0 0.02 0.06 0.06 100 1011.0
20260505183004 52 296 5.0 12.0 0.01 0.05 0.05 100 1011.0
20260505182502 52 312 5.0 13.0 0.01 0.05 0.05 100 1011.0
20260505091700 56 313 8.0 13.0 0.00 0.01 0.00 100 1010.9
20260505091147 55 295 6.0 13.0 0.00 0.01 0.00 100 1010.9
20260505090144 56 317 4.0 13.0 0.00 0.01 0.00 100 1011.0
20260505085642 57 310 5.0 11.0 0.00 0.01 0.00 100 1010.9
20260505085140 56 319 4.0 14.0 0.00 0.01 0.00 100 1010.9
20260505084641 56 310 7.0 14.0 0.00 0.01 0.00 100 1010.9
20260505084138 56 318 5.0 12.0 0.00 0.01 0.00 100 1011.0
20260505083633 56 296 5.0 11.0 0.00 0.01 0.00 100 1011.0
20260505083132 56 313 4.0 10.0 0.00 0.01 0.00 100 1011.0
20260505082631 55 313 5.0 10.0 0.00 0.01 0.00 100 1011.0
20260505082127 55 317 4.0 9.0 0.00 0.01 0.00 100 1011.0
20260505081626 55 324 3.0 6.0 0.00 0.01 0.00 100 1011.0
20260505081124 55 324 3.0 9.0 0.00 0.01 0.00 100 1011.0
20260505080621 54 325 4.0 11.0 0.00 0.01 0.00 100 1011.0
20260505080128 54 311 4.0 10.0 0.00 0.02 0.00 100 1011.1
20260505075618 54 311 5.0 10.0 0.00 0.02 0.00 100 1011.2
20260505075117 54 311 3.0 9.0 0.00 0.02 0.00 100 1011.2
20260505074615 54 311 3.0 9.0 0.00 0.02 0.00 100 1011.2
20260505074103 54 311 3.0 8.0 0.00 0.02 0.00 100 1011.2
20260505073602 54 311 3.0 8.0 0.00 0.02 0.00 100 1011.2
20260505073101 54 311 4.0 8.0 0.00 0.02 0.00 100 1011.1
20260505072557 54 311 4.0 8.0 0.00 0.02 0.00 100 1011.2
20260505072056 54 311 4.0 8.0 0.00 0.02 0.00 100 1011.2
20260505071558 54 311 3.0 6.0 0.00 0.02 0.00 100 1011.1
20260505071051 54 311 3.0 6.0 0.00 0.02 0.00 100 1011.2
20260505070050 54 311 3.0 6.0 0.00 0.02 0.00 100 1011.2
20260505065546 53 311 3.0 9.0 0.00 0.02 0.00 100 1011.2
20260505065043 53 311 4.0 9.0 0.00 0.02 0.00 100 1011.2
20260505064542 53 311 4.0 9.0 0.00 0.02 0.00 100 1011.3
20260505064041 54 311 3.0 8.0 0.00 0.02 0.00 100 1011.3
20260505063538 54 311 3.0 8.0 0.00 0.02 0.00 100 1011.3
20260505063044 53 311 2.0 9.0 0.00 0.02 0.00 100 1011.3
20260505062532 53 311 4.0 9.0 0.00 0.02 0.00 100 1011.3
20260505062032 53 311 2.0 6.0 0.00 0.02 0.00 100 1011.4
20260505061554 53 311 2.0 8.0 0.00 0.02 0.00 100 1011.4
20260505061027 53 311 2.0 6.0 0.00 0.02 0.00 100 1011.4
20260505060023 53 311 3.0 5.0 0.00 0.02 0.00 100 1011.3
20260505055524 53 311 1.0 4.0 0.00 0.02 0.00 100 1011.4
20260505055019 53 311 0.0 3.0 0.00 0.02 0.00 100 1011.3
20260505054518 53 311 0.0 4.0 0.00 0.02 0.00 100 1011.3
20260505054018 53 311 2.0 4.0 0.00 0.02 0.00 100 1011.4
20260505053514 53 311 2.0 6.0 0.00 0.02 0.00 100 1011.4
20260505053012 53 311 2.0 8.0 0.00 0.02 0.00 100 1011.4
20260505052509 53 311 2.0 8.0 0.00 0.02 0.00 100 1011.3
20260505052009 53 311 2.0 5.0 0.00 0.02 0.00 100 1011.2
20260505051518 53 311 2.0 6.0 0.00 0.02 0.00 100 1011.3
20260505051004 53 311 2.0 9.0 0.00 0.02 0.00 100 1011.3
20260505050501 53 311 3.0 9.0 0.00 0.02 0.00 100 1011.3